Regional Weather Roundup
Issued by NWS Goodland, KS

Home | Current Version | Previous Version | Text Only | Print | Product List | Glossary Off
Versions: 1 2 3 4 5 6 7 8 9 10 11 12 13 14 15 16 17 18 19 20 21 22 23 24 25 26 27 28 29 30 31 32 33 34 35 36 37 38 39 40 41 42 43 44 45 46 47 48 49 50

582
ASUS43 KGLD 300608
RWRGLD

GOODLAND FORECAST AREA HOURLY WEATHER ROUNDUP
NATIONAL WEATHER SERVICE GOODLAND KS
1200 AM MDT SAT JUL 30 2016

...OFFICIAL OBSERVATIONS...

CITY           SKY/WX    TMP DP  RH WIND       PRES   REMARKS
GOODLAND KS    CLOUDY    67  62  84 S13       30.09F
HILL CITY KS   CLOUDY    69  66  90 E7        30.05S
IMPERIAL NEB   CLEAR     67  60  78 CALM      30.05
MCCOOK NEB     CLOUDY    71  63  75 SE12G21   30.03F
AKRON CO       CLOUDY    66  60  81 SE12      30.12F
BURLINGTON CO  TSTM      68  61  78 VRB6      30.16F
LIMON CO       CLOUDY    64  61  90 SE6       30.21R
$$

...UNOFFICIAL OBSERVATIONS...

CITY           SKY/WX    TMP DP  RH WIND       PRES   REMARKS
COLBY KS       PTCLDY    64  64 100 CALM      30.09F
LENORA KS        N/A     69  32  25 MISG        N/A
NORTON KS      CLEAR     68  61  77 SE3       30.05S
SHARON SPRINGS   N/A     66  62  88 CALM        N/A
KIT CARSON CO    N/A     64  56  77 MISG        N/A
YUMA CO          N/A     66  63  89 SE5         N/A
$$




USA.gov is the U.S. government's official web portal to all federal, state and local government web resources and services.